Location: Clermont
(50.2608°N, 4.3172°E)
Time: 16:08:03
(UTC+00:00)

OPS 6432 - Pass Details

Date: 13 August 2020
Orbit: 369 x 1718 km, 63.3° (Epoch: 14 September)

Event Time Altitude Azimuth Distance (km) Brightness Sun altitude
Rises 19:59:16 0° 217° (SW) 2,998 8.6 -8.4°
Reaches altitude 10° 20:01:52 10° 215° (SW) 1,895 7.6 -8.8°
Maximum altitude 20:05:56 73° 132° (SE) 499 4.4 -9.3°
Drops below altitude 10° 20:09:07 10° 47° (NE) 1,488 6.9 -9.7°
Sets 20:10:58 0° 45° (NE) 2,286 7.9 -9.9°
